Regional Weather Roundup
Issued by NWS

Home | Current Version | Previous Version | Graphics & Text | Print | Product List | Glossary On
Versions: 1 2 3 4 5 6 7 8 9 10 11 12 13 14 15 16 17 18 19 20 21 22 23 24 25 26 27 28 29 30 31 32 33 34 35 36 37 38 39 40 41 42 43 44 45 46 47 48 49 50
000
ASUS43 KIND 280959
RWRIN

WEATHER ROUNDUP FOR INDIANA
NATIONAL WEATHER SERVICE INDIANAPOLIS IN
600 AM EDT TUE APR 28 2015

NOTE: "FAIR" INDICATES FEW OR NO CLOUDS BELOW 12,000 FEET WITH NO
SIGNIFICANT WEATHER AND/OR OBSTRUCTIONS TO VISIBILITY.

* - STATION DOES NOT REPORT WEATHER SUCH AS PRECIPITATION OR FOG.

+ - STATION NOT QUALITY CONTROLLED BY THE NATIONAL WEATHER SERVICE.
    USE DATA WITH CAUTION...ESPECIALLY DEWPOINT AND RELATIVE
    HUMIDITY OBSERVATIONS.

INZ001>003-010>013-019-020-281100-
NORTHWEST INDIANA

CITY           SKY/WX    TMP DP  RH WIND       PRES   REMARKS
GARY /AIRPORT/ CLEAR     36  34  93 CALM      30.15R

$$

LMZ046-743>745-281100-
SOUTHERN LAKE MICHIGAN

STATION/POSITION TIME  TEMP    WIND        PRES    WAVE
                       AIR SEA DIR/SP/G            HT
                 (UTC) (F)     (DEG/KT/KT) (MB)    (FT)
BURNS HARBOR     0900   42     330/  3/  6 1021.0R
MICHIGAN CITY    0900   40     340/  4/  4   N/A
5NW MICH CITY    0900   40 46  310/  2/  4   N/A     2

$$

INZ004-005-014>016-021>024-281100-
NORTH CENTRAL INDIANA

CITY           SKY/WX    TMP DP  RH WIND       PRES   REMARKS
GOSHEN         FOG       33  31  92 CALM      30.12R VSB 1/2
SOUTH BEND     CLEAR     36  33  89 NW3       30.14R

$$

INZ006>009-017-018-025>027-281100-
NORTHEAST INDIANA

CITY           SKY/WX    TMP DP  RH WIND       PRES   REMARKS
ANGOLA *+        N/A     30  30 100 CALM      30.11R
FORT WAYNE     PTCLDY    33  30  88 CALM      30.12R

$$

INZ028-029-035-036-043>045-051>053-281100-
WEST CENTRAL INDIANA

CITY           SKY/WX    TMP DP  RH WIND       PRES   REMARKS
CRAWFORDSVL +  CLEAR     32  29  90 CALM      30.13R
GREENCASTLE +  CLEAR     37  32  81 N5        30.11S
LAFAYETTE      CLEAR     34  33  96 CALM      30.14R
TERRE HAUTE    CLEAR     38  35  89 N5        30.12R

$$

INZ030>032-037>040-046>048-054>057-064-065-281100-
CENTRAL INDIANA

CITY           SKY/WX    TMP DP  RH WIND       PRES   REMARKS
GREENWOOD *+   CLEAR     37  34  87 CALM      30.11R
INDIANAPOLIS   CLEAR     39  34  82 N7        30.10R
-EAGLE CREEK   CLEAR     38  34  85 CALM      30.11R
KOKOMO *+      CLEAR     34  30  86 NW5       30.13R WCI  30
MT COMFORT *+  CLEAR     36 N/A N/A CALM      30.12R
SHELBYVILLE    CLEAR     38  33  82 NE5       30.11R

$$

INZ033-034-041-042-049-050-058-059-281100-
EAST CENTRAL INDIANA

CITY           SKY/WX    TMP DP  RH WIND       PRES   REMARKS
MUNCIE         CLEAR     35  33  92 CALM      30.11R

$$

INZ060-061-067>069-081>083-085>088-281100-
SOUTHWEST INDIANA

CITY           SKY/WX    TMP DP  RH WIND       PRES   REMARKS
EVANSVILLE     CLEAR     44  38  79 NE8       30.08R
HUNTINGBURG *+ CLEAR     39  34  81 NE7       30.08R

$$

INZ062-063-066-070>080-084-089>092-281100-
SOUTH CENTRAL AND SOUTHEAST INDIANA

CITY           SKY/WX    TMP DP  RH WIND       PRES   REMARKS
BLOOMINGTON    CLEAR     36  34  92 CALM      30.10R
MADISON *+     CLEAR     37  34  87 CALM      30.11R
SEYMOUR +      CLEAR     41  37  87 NE5       30.10R

$$




USA.gov is the U.S. government's official web portal to all federal, state and local government web resources and services.